Airport details for: LEVC (Spain)

Metar

LEVC 280600Z VRB01KT 9999 FEW030 19/17 Q1019 NOSIG

General details

ICAO: LEVC
IATA: VLC
Name (city): Manises
Major:
Country: Spain
vACC: vACC Spain
Description:

Valencia Airport LEVC

Valencia Airport in Manises (IATA: VLC, ICAO: LEVC), also known as Manises Airport,[3] is the 8th busiest Spanish airport in terms of passengers[4] and second in the region after Alicante. It is situated 8 km (5.0 mi) west[2] of the city ofValencia. The airport has flight connections to about 15 European countries and 4.98 million passengers passed through the airport in 2011.[1] The airport has one terminal and one runway. The former runway 04/22 is not in use and has no ILS but has a helipad at the southwestern end.

Scenery links:
FS9 scenery:
FSX/P3D scenery:
XP scenery:
Elevation: 240 ft.
Transition altitude: 6000 ft.
MSA: 10500 ft.
Latitude: 39.489445
Longitude: -0.481667
LEVC Charts
LEVC Notams
LEVC Online stations

Runways

Number Course Length Elevation Lat Lon ILS ILS freq ILS FAC GP
12 117° 10548ft / 3215 m 240ft 39.496353 -0.500114 111.5 117° 3.0°
30 297° 10548ft / 3215 m 175ft 39.484775 -0.469711 110.1 297° 3.0°